STARLINK-2733 (48645 NORAD) Tracking and Keplerian Element Data

This shows tracking and keplerian element data for the satellite.

Feedback or suggestion? Click here.




ElementValue
Catalog48645
NameSTARLINK-2733
Epoch Orbit1050
Epoch Day214.73537191
Epoch Year2021
RAAN103.2137
Inclination53.0547
Eccentricity0.0001834
Argument of Perigee88.0669
Mean Anonmoly272.053
Mean Motion15.06398085
Decay Rate6.36E-06
L11 48645U 21044H 21214.73537191 .00000636 00000-0 61609-4 0 9995
L22 48645 53.0547 103.2137 0001834 88.0669 272.0530 15.06398085 10503

Live tracking and technical data element details for STARLINK-2733 (NORAD 48645). STARLINK-2733 can be tracked NOW for your location showing map with azimuth and elevation plus other details from your city location.

Track the satellite on the map from your city or location and see movement details for azimuth, elevation, latitude, longitude, range, height, and movement on the map or in text.







IsCatalogInMostPopularTable: catalog: 48645, numindb: 15
Update: records affected: 1



GetName: 48645 STARLINK-2733

Hit Count: updated at: Tue, 03 Aug 2021 22:59:13 GMT